Погода Алтай

Погода Алтай : погода сейчас, прогноз погоды и архив. Всё, что Вы хотите узнать о погоде Алтай!

Поиск расширенной информации на нашем сайте:

Другие новости

Новости СМИ2

Главная страница сайта

Новости сайта

03.07.2017

Напоминаем, что на нашем специализированном сайте Метеоцентр.Азия вы можете получить высокодетализированные автоматические прогнозы погоды по пунктам России, СНГ и мира в авиационном формате (включающие направление и скорость ветра, видимость, явления погоды, количество и форму облачности, нижнюю и верхнюю границу облачности).

Рекомендуем: купить офис в бизнес центре хамовническая слобода

Погода Алтай - сегодня

Время (UTC), дата Ветер
(°,м/с) 
Видим.   Явления Облачность Т
(°С)
Тd
(°С)
f(%) Тe
(°С)
Pmin
(гПа)
dP
(гПа)
Po
(мм)
O2
(г/м3)
Тmin Tmax R s Состояние
почвы
21 16.09.17 220 (ЮЗ) 20000 м  {гроза, ливн. осадки}  ясно 
+11.8 +11 95 +15  1004.2  -2.2  750  288           
00 17.09.17 270 (З) 20000 м  {гроза, ливн. осадки}  1/1 600 м 
[Sc]
+10.1 +9.5 96 +11  1004.3  -0.1  750  290           
03 17.09.17 260 (З) 20000 м    1/0 средняя 
[Ac trans]
+11.1 +8.9 86 +11  1004.5  -0.1  750  289  +10    11     
06 17.09.17 250 (З) н/о    н/о 
+14.3 +8.7 69 +14  1004.2  -0.3  750  286           
09 17.09.17 250 (З) 20000 м    9/9 600 м кучево-дожд. 
[Cb calv]
+15.4 +7.2 58 +15  1003.7  -0.4  750  285           
12 17.09.17 250 (З) 4{11}  н/о    н/о 
+13.2 +8 71 +13  1003.9  0.1  750  287           
15 17.09.17 240 (ЮЗ) 20000 м  {ливн. осадки}  9/9 600 м кучево-дожд. 
[Cb calv]
+11.5 +8.1 80 +11  1003.3  -0.6  750  288    +16  0.4     
18 17.09.17 260 (З) 20000 м    10/10 600 м кучево-дожд. 
[Cb calv]
+10.4 +7.4 82 +10  1002.5  -0.8  749  289           
21 17.09.17 250 (З) 20000 м    10/10 600 м кучево-дожд. 
[Cb calv]
+9.8 +7.4 85 +9  1001.7  -0.8  748  290           
00 18.09.17 260 (З) 20000 м    10/10 600 м кучево-дожд. 
[Cb calv]
+9.4 +6.6 83 +8  1001.6  0.1  748  290           
03 18.09.17 250 (З) 20000 м    10/10 600 м кучево-дожд. 
[Cb calv]
+8.7 +6.2 84 +8  1002  0.3  749  291  +8.6         
06 18.09.17 280 (З) 5-10{10}  н/о    н/о 
+9.1 +5.1 76 +8  1003  749  291           
12 18.09.17 310 (СЗ) н/о    н/о 
+8.1 +6.7 91 +7  1006.2  1.5  752  293           
15 18.09.17 330 (СЗ) 10 км  слаб. ливневой дождь  10/10 600 м кучево-дожд. 
[Cb calv]
+7.2 +5.1 86 +6  1008.5  2.3  753  295    +9.6     
18 18.09.17 330 (СЗ) 20000 м  {ливн. осадки}  10/10 600 м кучево-дожд. 
[Cb calv]
+6.2 +4.3 88 +5  1010.4  1.9  755  297           
21 18.09.17 350 (С) 20000 м  {ливн. осадки}  10/10 600 м кучево-дожд. 
[Cb calv]
+4.8 +2.5 85 +4  1012.4  1.9  756  299           
00 19.09.17 330 (СЗ) 20000 м    10/10 600 м кучево-дожд. 
[Cb calv]
+4.8 +1.9 81 +4  1014.4  758  300           
03 19.09.17 320 (СЗ) 20000 м    10/10 600 м кучево-дожд. 
[Cb calv]
+4.8 +1.7 80 +4  1016.2  1.8  759  300  +4.7    0.4    влажная 
06 19.09.17 330 (СЗ) н/о    н/о 
+7.5 +1.7 67 +7  1017.6  1.4  760  298  +4.6         
09 19.09.17 310 (СЗ) 20000 м    3/1 600 м верхняя 
[Cu hum|Ci fib]
+10.2 +1.9 56 +10  1018.1  0.6  761  295           
12 19.09.17 330 (СЗ) н/о    н/о 
+9.7 +3.7 66 +10  1018.7  0.6  761  296           
15 19.09.17 240 (ЮЗ) 20000 м    6/6 600 м 
[Sc]
+6.4 +4 85 +7  1019.2  0.4  761  299    +11.3       
18 19.09.17 230 (ЮЗ) 20000 м    10/10 600 м кучево-дожд. 
[Cb calv]
+6.7 +5.7 93 +8  1018.9  -0.3  761  298           
21 19.09.17 110 (В) 20000 м    10/10 600 м кучево-дожд. 
[Cb calv]
+6.8 +5.3 90 +8  1017.7  -1.2  760  298           
00 20.09.17 130 (ЮВ) 20000 м    10/10 600 м кучево-дожд. 
[Cb calv]
+6.6 +5.2 91 +6  1016.1  -1.6  759  298           
Время (UTC), дата Ветер
(°,м/с) 
Видим.   Явления Облачность Т
(°С)
Тd
(°С)
f(%) Тe
(°С)
Pmin
(гПа)
dP
(гПа)
Po
(мм)
O2
(г/м3)
Тmin Tmax R s Состояние
почвы

Для получения пояснительной информации подведите курсор к названию столбца.

ПОГОДА Алтай - архив

Всё, что Вы хотите узнать о погоде Алтай - удобно и подробно!

Выберите нужную дату (начиная с 1 января 2015* года) и нажмите кнопку "Найти".
Будут отображены архивные сводки погоды по пункту Алтай, начиная с указанной даты.


Отображать данные в формате CSV (для использования в таблицах Excel)


Внимание! Наш архив погоды предназначен исключительно для личного некоммерческого использования в познавательных целях. Если Вам необходимы официальные справки о состоянии погоды (для производственных, юридических, коммерческих и т.п. целей), обращайтесь в органы Росгидромета.

*Примечание: данная дата относится к архиву по метеостанциям СССР (Россия, СНГ, Балтия).
Архив по метеостанциям Зарубежной Европы и Азии (кроме Китая) хранится 10 дней, по другим регионам земного шара (Китай, Африка, Америка, Австралия, Океания) - 1 день.

Алтай - район местоположения метеостанции


Название, широта, долгота, высота метеостанции:
Алтай 60.3°ш. 68.9°д. 30 м над ур. моря [Российская Федерация]

Дополнительная информация

В oтличие oт бoльшинства пoгoдных сайтoв мы публикуем пoдрoбную метеoинфoрмацию в детальнoм прoфессиoнальнoм фoрмате.

Характеристики температуры и влажнoсти вoздуха измеряются на высoте 2 м в тени вдали oт зданий и деревьев.
Скoрoсть ветра измеряется на высoте 10 м (на урoвне рoста челoвека скoрoсть ветра ниже в 1.5-2 раза). Если метеoстанция нахoдится в гoрoде или в лесу, тo скoрoсть ветра занижена на 2-4 м/с пo сравнению с oткрытым местoм. Скoрoсть ветра над акватoриями крупных рек и oзёр, а также на вершинах хoлмoв на 2-5 м/с выше, чем в oбычных услoвиях.
Атмoсфернoе давление в разных тoчках местнoсти мoжет значительнo oтличаться oт давления на метеoстанции, в зависимoсти oт услoвий рельефа (при пoдъёме на 10 м давление пoнижается примернo на 1 мм рт.ст.).